GW5140 Weather Reports


time (UTC)temp
F
wind
direction
speed
knots
gust
knots
rain 1hr
in
rain 24hr
in
rain mn
in
humidity
%
barometer
mb
20260508033832 39 235 0.0 0.0 0.00 0.00 0.00 86 1017.6
20260508033331 39 235 0.0 0.0 0.00 0.00 0.00 86 1017.8
20260508032828 39 235 0.0 0.0 0.00 0.00 0.00 86 1017.7
20260508032325 40 235 0.0 0.0 0.00 0.00 0.00 86 1017.7
20260508031821 40 242 0.0 0.0 0.00 0.00 0.00 85 1017.8
20260508031318 40 241 0.0 0.0 0.00 0.00 0.00 85 1017.6
20260508030814 40 240 0.0 0.0 0.00 0.00 0.00 85 1017.5
20260508030312 40 240 0.0 0.0 0.00 0.00 0.00 85 1017.5
20260508025808 41 243 0.0 0.0 0.00 0.00 0.00 84 1017.5
20260508025306 41 242 0.0 0.0 0.00 0.00 0.00 84 1017.5
20260508024802 41 237 0.0 0.0 0.00 0.00 0.00 83 1017.5
20260508024259 41 236 0.0 0.0 0.00 0.00 0.00 84 1017.6
20260508023756 42 251 0.0 0.0 0.00 0.00 0.00 83 1017.3
20260508023253 42 253 0.0 0.0 0.00 0.00 0.00 82 1017.2
20260508022748 42 248 0.0 0.0 0.00 0.00 0.00 82 1017.2
20260508022245 42 246 0.0 0.0 0.00 0.00 0.00 80 1017.1
20260508021743 43 246 0.0 0.0 0.00 0.00 0.00 80 1017.0
20260508021238 43 253 0.0 0.0 0.00 0.00 0.00 79 1016.9
20260508020735 44 262 0.0 0.0 0.00 0.00 0.00 78 1016.9
20260508020232 44 267 0.0 0.0 0.00 0.00 0.00 78 1016.9
20260508015729 44 297 0.0 0.0 0.00 0.00 0.00 75 1016.8
20260508015226 44 141 0.0 0.0 0.00 0.00 0.00 78 1016.6
20260508014723 45 211 0.0 0.0 0.00 0.00 0.00 77 1016.6
20260508014220 46 234 0.0 0.0 0.00 0.00 0.00 76 1016.5
20260508013716 46 272 0.0 0.0 0.00 0.00 0.00 72 1016.6
20260508013212 47 326 0.0 0.0 0.00 0.00 0.00 73 1016.5
20260508012710 47 273 0.0 0.0 0.00 0.00 0.00 72 1016.5
20260508012206 47 350 1.7 1.7 0.00 0.00 0.00 69 1016.4
20260508011705 47 35 0.9 2.6 0.00 0.00 0.00 67 1016.3
20260508011202 47 338 1.7 1.7 0.00 0.00 0.00 68 1015.9
20260508010659 47 269 0.0 0.0 0.00 0.00 0.00 69 1016.0
20260508010156 48 276 0.0 0.0 0.00 0.00 0.00 70 1016.1
20260508005654 49 204 0.0 0.9 0.00 0.00 0.00 69 1015.9
20260508005150 49 239 0.0 0.0 0.00 0.00 0.00 64 1015.8
20260508004646 49 12 0.9 1.7 0.00 0.00 0.00 61 1015.9
20260508004142 51 320 1.7 1.7 0.00 0.00 0.00 65 1015.9
20260508003639 51 332 0.0 1.7 0.00 0.00 0.00 54 1015.8
20260508003137 51 107 0.9 0.9 0.00 0.00 0.00 59 1015.7
20260508002633 52 293 2.6 2.6 0.00 0.00 0.00 46 1015.4
20260508002131 53 52 0.9 2.6 0.00 0.00 0.00 53 1015.6
20260508001625 55 308 0.0 5.2 0.00 0.00 0.00 42 1015.4
20260508001122 54 304 0.9 1.7 0.00 0.00 0.00 45 1015.5
20260508000618 54 322 2.6 2.6 0.00 0.00 0.00 58 1015.3
20260508000116 55 172 2.6 3.5 0.00 0.00 0.00 44 1015.1
20260507235612 56 220 0.0 2.6 0.00 0.00 0.00 44 1015.0
20260507235110 56 340 1.7 3.5 0.00 0.00 0.00 39 1014.9
20260507234606 56 198 1.7 9.6 0.00 0.00 0.00 39 1015.0
20260507234103 57 168 0.0 3.5 0.00 0.00 0.00 42 1015.0
20260507233559 58 359 5.2 6.1 0.00 0.00 0.00 40 1014.8
20260507233058 58 185 6.1 8.7 0.00 0.00 0.00 36 1014.9
20260507232553 58 202 0.0 8.7 0.00 0.00 0.00 36 1014.5
20260507232051 58 341 3.5 7.0 0.00 0.00 0.00 38 1014.6
20260507231547 58 152 2.6 2.6 0.00 0.00 0.00 37 1014.3
20260507231045 59 1 0.0 6.1 0.00 0.00 0.00 38 1014.4
20260507230541 60 20 0.9 3.5 0.00 0.00 0.00 36 1014.4
20260507230038 60 116 3.5 11.3 0.00 0.00 0.00 37 1014.3
20260507225533 60 209 2.6 7.0 0.00 0.00 0.00 36 1014.3
20260507225030 61 115 5.2 6.1 0.00 0.00 0.00 36 1014.3
20260507224526 61 49 2.6 7.0 0.00 0.00 0.00 39 1014.2
20260507224022 62 198 3.5 7.0 0.00 0.00 0.00 37 1014.4
20260507223518 62 217 0.0 1.7 0.00 0.00 0.00 36 1014.2
20260507223016 60 279 0.0 0.0 0.00 0.00 0.00 44 1014.2
20260507222513 59 14 2.6 2.6 0.00 0.00 0.00 40 1014.3
20260507222009 61 207 3.5 5.2 0.00 0.00 0.00 37 1014.2
20260507221506 61 259 0.9 7.0 0.00 0.00 0.00 34 1014.3
20260507221002 62 49 5.2 7.8 0.00 0.00 0.00 39 1013.9
20260507220500 63 335 0.9 5.2 0.00 0.00 0.00 38 1013.9
20260507215956 63 215 1.7 5.2 0.00 0.00 0.00 33 1013.6
20260507215453 62 282 0.9 2.6 0.00 0.00 0.00 40 1013.8
20260507214951 60 288 0.9 7.8 0.00 0.00 0.00 38 1013.8
20260507214448 60 14 2.6 3.5 0.00 0.00 0.00 41 1013.9
20260507213943 60 182 1.7 3.5 0.00 0.00 0.00 40 1013.8
20260507213440 61 56 1.7 7.0 0.00 0.00 0.00 36 1013.8
20260507212937 64 195 4.3 7.8 0.00 0.00 0.00 35 1013.7
20260507212432 62 271 1.7 2.6 0.00 0.00 0.00 40 1013.6
20260507211930 61 254 0.9 2.6 0.00 0.00 0.00 37 1013.5
20260507211426 61 285 0.9 7.0 0.00 0.00 0.00 38 1013.5
20260507210923 61 228 1.7 9.6 0.00 0.00 0.00 36 1013.8
20260507210420 62 10 1.7 2.6 0.00 0.00 0.00 35 1013.6
20260507205917 62 245 2.6 2.6 0.00 0.00 0.00 40 1013.5
20260507205414 62 121 1.7 5.2 0.00 0.00 0.00 35 1013.6
20260507204910 62 260 1.7 7.8 0.00 0.00 0.00 39 1013.6
20260507204406 62 62 0.0 2.6 0.00 0.00 0.00 37 1013.5
20260507203904 63 207 2.6 7.8 0.00 0.00 0.00 39 1013.7
20260507203402 62 268 1.7 2.6 0.00 0.00 0.00 41 1013.4
20260507202858 63 43 7.8 11.3 0.00 0.00 0.00 35 1013.3
20260507202355 62 58 3.5 7.0 0.00 0.00 0.00 37 1013.5
20260507201850 61 74 0.0 3.5 0.00 0.00 0.00 39 1013.6
20260507201346 61 178 0.9 6.1 0.00 0.00 0.00 40 1013.8
20260507200842 62 352 5.2 8.7 0.00 0.00 0.00 38 1013.9
20260507200338 62 284 1.7 5.2 0.00 0.00 0.00 41 1013.6
20260507195835 62 190 1.7 8.7 0.00 0.00 0.00 38 1013.8
20260507195332 61 180 0.9 2.6 0.00 0.00 0.00 45 1013.9
20260507194829 60 199 2.6 5.2 0.00 0.00 0.00 42 1014.2
20260507194325 61 335 0.9 2.6 0.00 0.00 0.00 42 1014.0
20260507193822 59 170 2.6 3.5 0.00 0.00 0.00 46 1014.3
20260507193320 60 179 4.3 5.2 0.00 0.00 0.00 42 1014.3
20260507192815 59 113 1.7 7.8 0.00 0.00 0.00 45 1014.6
20260507192312 61 9 0.9 6.1 0.00 0.00 0.00 45 1014.5
20260507191808 59 314 2.6 6.1 0.00 0.00 0.00 47 1014.6
20260507191305 59 193 0.9 3.5 0.00 0.00 0.00 42 1014.5
20260507190802 60 210 1.7 3.5 0.00 0.00 0.00 46 1014.4
20260507190301 59 180 0.9 0.9 0.00 0.00 0.00 42 1014.3
20260507185759 61 323 7.0 9.6 0.00 0.00 0.00 43 1014.6
20260507185255 59 54 1.7 5.2 0.00 0.00 0.00 43 1014.6
20260507184752 60 274 2.6 6.1 0.00 0.00 0.00 50 1014.5
20260507184250 60 297 1.7 6.1 0.00 0.00 0.00 45 1014.4
20260507183747 60 184 3.5 6.1 0.00 0.00 0.00 44 1014.4
20260507183244 59 127 3.5 7.8 0.00 0.00 0.00 42 1014.4
20260507182741 60 286 3.5 6.1 0.00 0.00 0.00 44 1014.6
20260507182236 61 26 1.7 2.6 0.00 0.00 0.00 48 1014.4
20260507181733 62 77 3.5 7.8 0.00 0.00 0.00 50 1014.6
20260507181229 60 124 3.5 8.7 0.00 0.00 0.00 47 1014.6
20260507180726 60 152 2.6 3.5 0.00 0.00 0.00 48 1014.5
20260507180223 60 341 3.5 5.2 0.00 0.00 0.00 47 1014.6
20260507175718 59 216 0.9 5.2 0.00 0.00 0.00 45 1014.6
20260507175216 59 155 4.3 8.7 0.00 0.00 0.00 47 1014.7
20260507174713 60 10 0.0 6.1 0.00 0.00 0.00 46 1014.7
20260507174211 58 111 1.7 2.6 0.00 0.00 0.00 52 1014.6
20260507173708 59 40 3.5 6.1 0.00 0.00 0.00 52 1014.7
20260507173205 59 147 4.3 6.1 0.00 0.00 0.00 46 1014.7
20260507172702 59 24 0.9 5.2 0.00 0.00 0.00 53 1014.8
20260507172159 59 138 4.3 7.8 0.00 0.00 0.00 48 1015.3
20260507171658 58 337 1.7 5.2 0.00 0.00 0.00 50 1015.3
20260507171156 59 298 1.7 3.5 0.00 0.00 0.00 46 1015.3
20260507170653 59 290 1.7 2.6 0.00 0.00 0.00 54 1015.3
20260507170150 57 204 2.6 5.2 0.00 0.00 0.00 50 1015.5
20260507165645 56 92 1.7 6.1 0.00 0.00 0.00 47 1015.4
20260507165142 57 342 0.9 1.7 0.00 0.00 0.00 52 1015.4
20260507164638 57 190 0.0 0.9 0.00 0.00 0.00 47 1015.6
20260507164135 56 62 2.6 6.1 0.00 0.00 0.00 47 1015.5
20260507163632 58 130 1.7 8.7 0.00 0.00 0.00 46 1015.5
20260507163130 59 92 1.7 7.8 0.00 0.00 0.00 49 1015.5
20260507162626 57 141 3.5 5.2 0.00 0.00 0.00 50 1015.7
20260507162122 58 321 1.7 6.1 0.00 0.00 0.00 50 1015.8
20260507161618 56 164 3.5 6.1 0.00 0.00 0.00 52 1015.8
20260507161115 56 283 1.7 7.0 0.00 0.00 0.00 50 1015.8
20260507160612 58 197 2.6 5.2 0.00 0.00 0.00 47 1015.6
20260507160108 59 324 0.9 2.6 0.00 0.00 0.00 47 1015.8
20260507155603 58 265 2.6 5.2 0.00 0.00 0.00 46 1015.8
20260507155101 58 183 3.5 6.1 0.00 0.00 0.00 50 1015.9
20260507154557 58 204 5.2 7.8 0.00 0.00 0.00 48 1015.9
20260507154055 58 231 3.5 7.0 0.00 0.00 0.00 45 1016.0
20260507153551 58 190 7.0 7.8 0.00 0.00 0.00 47 1016.0
20260507153048 58 75 0.0 7.8 0.00 0.00 0.00 44 1016.1
20260507152543 57 32 0.9 8.7 0.00 0.00 0.00 49 1016.1
20260507152040 57 204 1.7 7.0 0.00 0.00 0.00 49 1016.0
20260507151536 57 186 5.2 6.1 0.00 0.00 0.00 46 1015.9
20260507151033 58 287 2.6 5.2 0.00 0.00 0.00 52 1016.0
20260507150530 57 3 5.2 6.1 0.00 0.00 0.00 50 1016.2
20260507150027 55 67 3.5 7.0 0.00 0.00 0.00 49 1016.1
20260507145522 56 343 1.7 5.2 0.00 0.00 0.00 47 1016.2
20260507145020 55 244 1.7 3.5 0.00 0.00 0.00 55 1016.4
20260507144516 54 150 0.0 5.2 0.00 0.00 0.00 54 1016.5
20260507144014 55 272 1.7 3.5 0.00 0.00 0.00 48 1016.5
20260507143511 55 258 0.9 5.2 0.00 0.00 0.00 55 1016.6
20260507143008 55 199 1.7 6.1 0.00 0.00 0.00 53 1016.5
20260507142503 55 322 0.9 3.5 0.00 0.00 0.00 52 1016.5
20260507142001 56 146 5.2 6.1 0.00 0.00 0.00 51 1016.6
20260507141456 56 20 2.6 5.2 0.00 0.00 0.00 60 1016.8
20260507140953 56 346 3.5 3.5 0.00 0.00 0.00 56 1016.8
20260507140450 56 349 5.2 7.0 0.00 0.00 0.00 58 1017.1
20260507135948 54 173 1.7 3.5 0.00 0.00 0.00 55 1017.0
20260507135444 55 171 4.3 7.0 0.00 0.00 0.00 56 1017.1
20260507134942 56 173 0.0 1.7 0.00 0.00 0.00 55 1017.3
20260507134438 54 6 0.0 2.6 0.00 0.00 0.00 60 1017.2
20260507133934 54 69 0.9 1.7 0.00 0.00 0.00 56 1017.5
20260507133430 54 218 0.0 0.9 0.00 0.00 0.00 62 1017.4
20260507132929 54 183 2.6 3.5 0.00 0.00 0.00 60 1017.3
20260507132425 56 170 1.7 1.7 0.00 0.00 0.00 62 1017.6
20260507131921 55 76 0.0 0.0 0.00 0.00 0.00 61 1017.5
20260507131418 54 119 0.9 1.7 0.00 0.00 0.00 64 1017.4
20260507130915 54 80 0.0 1.7 0.00 0.00 0.00 66 1017.5
20260507130412 53 150 0.0 0.9 0.00 0.00 0.00 69 1017.6
20260507125911 52 63 0.9 1.7 0.00 0.00 0.00 72 1017.4
20260507125409 51 183 0.9 0.9 0.00 0.00 0.00 73 1017.3
20260507124906 50 64 0.0 1.7 0.00 0.00 0.00 76 1017.4
20260507124402 49 66 0.0 0.9 0.00 0.00 0.00 84 1017.5
20260507123901 48 74 0.0 0.9 0.00 0.00 0.00 89 1017.4
20260507123357 47 45 0.0 0.9 0.00 0.00 0.00 93 1017.5
20260507122854 47 15 0.0 0.9 0.00 0.00 0.00 94 1017.5
20260507122349 44 322 0.0 0.0 0.00 0.00 0.00 94 1017.3
20260507121845 43 320 0.0 0.0 0.00 0.00 0.00 94 1017.3
20260507121341 42 320 0.0 0.0 0.00 0.00 0.00 94 1017.3
20260507120838 42 320 0.0 0.0 0.00 0.00 0.00 94 1017.3
20260507120334 42 323 0.0 0.0 0.00 0.00 0.00 94 1017.6
20260507115831 41 323 0.0 0.0 0.00 0.00 0.00 94 1017.4
20260507115326 41 323 0.0 0.0 0.00 0.00 0.00 94 1017.4
20260507114822 41 323 0.0 0.0 0.00 0.00 0.00 93 1017.5
20260507114319 41 323 0.0 0.0 0.00 0.00 0.00 94 1017.4
20260507113817 41 323 0.0 0.0 0.00 0.00 0.00 93 1017.5
20260507113314 41 324 0.0 0.0 0.00 0.00 0.00 93 1017.4
20260507112811 41 326 0.0 0.0 0.00 0.00 0.00 93 1017.5
20260507112308 41 320 0.0 0.0 0.00 0.00 0.00 93 1017.1
20260507111806 41 320 0.0 0.0 0.00 0.00 0.00 93 1017.2
20260507111302 40 320 0.0 0.0 0.00 0.00 0.00 93 1017.0
20260507110758 40 320 0.0 0.0 0.00 0.00 0.00 93 1017.2
20260507110255 41 320 0.0 0.0 0.00 0.00 0.00 93 1017.1
20260507105752 41 320 0.0 0.0 0.00 0.00 0.00 93 1016.8
20260507105248 41 320 0.0 0.0 0.00 0.00 0.00 93 1016.8
20260507104745 41 321 0.0 0.0 0.00 0.00 0.00 93 1016.8
20260507104242 41 321 0.0 0.0 0.00 0.00 0.00 93 1016.7
20260507103738 41 321 0.0 0.0 0.00 0.00 0.00 93 1016.7
20260507103234 41 321 0.0 0.0 0.00 0.00 0.00 93 1016.7
20260507102730 42 321 0.0 0.0 0.00 0.00 0.00 93 1016.6
20260507102227 41 321 0.0 0.0 0.00 0.00 0.00 93 1016.7
20260507101723 42 323 0.0 0.0 0.00 0.00 0.00 93 1016.5
20260507101219 42 316 0.0 0.0 0.00 0.00 0.00 93 1016.7
20260507100716 42 317 0.0 0.0 0.00 0.00 0.00 93 1016.6
20260507100215 42 313 0.0 0.0 0.00 0.00 0.00 93 1016.6
20260507095712 42 313 0.0 0.0 0.00 0.00 0.00 93 1016.7
20260507095208 42 313 0.0 0.0 0.00 0.00 0.00 92 1016.5
20260507094705 42 313 0.0 0.0 0.00 0.00 0.00 92 1016.7
20260507094202 42 313 0.0 0.0 0.00 0.00 0.00 92 1016.6
20260507093659 42 313 0.0 0.0 0.00 0.00 0.00 92 1016.4
20260507093158 42 313 0.0 0.0 0.00 0.00 0.00 92 1016.5
20260507092654 43 314 0.0 0.0 0.00 0.00 0.00 92 1016.4
20260507092151 43 314 0.0 0.0 0.00 0.00 0.00 92 1016.4
20260507091647 43 314 0.0 0.0 0.00 0.00 0.00 92 1016.4
20260507091144 43 313 0.0 0.0 0.00 0.00 0.00 92 1016.4
20260507090639 43 312 0.0 0.0 0.00 0.00 0.00 92 1016.4
20260507090137 43 312 0.0 0.0 0.00 0.00 0.00 92 1016.4
20260507085634 43 330 0.0 0.0 0.00 0.00 0.00 92 1016.4
20260507085130 43 330 0.0 0.0 0.00 0.00 0.00 92 1016.4
20260507084627 43 332 0.0 0.0 0.00 0.00 0.00 92 1016.5
20260507084124 43 340 0.0 0.0 0.00 0.00 0.00 91 1016.4
20260507083621 43 327 0.0 0.0 0.00 0.00 0.00 91 1016.4
20260507083118 44 328 0.0 0.0 0.00 0.00 0.00 91 1016.3
20260507082613 45 332 0.0 0.0 0.00 0.00 0.00 91 1016.5
20260507082110 45 333 0.0 0.0 0.00 0.00 0.00 90 1016.6
20260507081607 45 327 0.0 0.0 0.00 0.00 0.00 90 1016.4
20260507081103 46 326 0.0 0.0 0.00 0.00 0.00 90 1016.4
20260507080559 46 327 0.0 0.0 0.00 0.00 0.00 90 1016.5
20260507080056 47 327 0.0 0.0 0.00 0.00 0.00 90 1016.4
20260507075551 47 323 0.0 0.0 0.00 0.00 0.00 90 1016.4
20260507075048 47 323 0.0 0.0 0.00 0.00 0.00 90 1016.5
20260507074544 48 323 0.0 0.0 0.00 0.00 0.00 90 1016.3
20260507074043 47 323 0.0 0.0 0.00 0.00 0.00 90 1016.4
20260507073539 48 312 0.0 0.0 0.00 0.00 0.00 90 1016.3
20260507073035 48 314 0.0 0.0 0.00 0.00 0.00 90 1016.2
20260507072533 48 322 0.0 0.0 0.00 0.00 0.00 90 1016.1
20260507072030 48 312 0.0 0.0 0.00 0.00 0.00 89 1016.2
20260507071527 48 316 0.0 0.0 0.00 0.00 0.00 89 1016.4
20260507071024 48 316 0.0 0.0 0.00 0.00 0.00 90 1016.3
20260507070521 48 316 0.0 0.0 0.00 0.00 0.00 90 1016.4
20260507070018 48 319 0.0 0.0 0.00 0.00 0.00 90 1016.2
20260507065514 48 319 0.0 0.0 0.00 0.00 0.00 90 1016.3
20260507065012 48 319 0.0 0.0 0.00 0.00 0.00 90 1016.3
20260507064509 48 321 0.0 0.0 0.00 0.00 0.00 90 1016.3
20260507064008 48 315 0.0 0.0 0.00 0.00 0.00 90 1016.1
20260507063504 49 317 0.0 0.0 0.00 0.00 0.00 90 1016.2
20260507063002 49 321 0.0 0.0 0.00 0.00 0.00 90 1016.4
20260507062458 49 314 0.0 0.0 0.00 0.00 0.00 90 1016.4
20260507061955 48 310 0.0 0.0 0.00 0.00 0.00 90 1016.4
20260507061453 49 316 0.0 0.0 0.00 0.00 0.00 90 1016.3
20260507060952 49 315 0.0 0.0 0.00 0.00 0.00 90 1016.2
20260507060448 49 318 0.0 0.0 0.00 0.00 0.00 90 1016.3
20260507055945 49 326 0.0 0.0 0.00 0.00 0.00 91 1016.3
20260507055440 49 327 0.0 0.0 0.00 0.00 0.00 91 1016.3
20260507054937 50 318 0.0 0.0 0.00 0.00 0.00 90 1016.1
20260507054433 50 320 0.0 0.0 0.00 0.00 0.00 90 1016.3
20260507053930 50 320 0.0 0.0 0.00 0.00 0.00 90 1016.4
20260507053428 50 320 0.0 0.0 0.00 0.00 0.00 90 1016.4
20260507052926 50 321 0.0 0.0 0.00 0.00 0.00 90 1016.4
20260507052424 50 324 0.0 0.0 0.00 0.00 0.00 91 1016.5
20260507051920 50 325 0.0 0.0 0.00 0.00 0.00 91 1016.7
20260507051418 50 324 0.9 1.7 0.00 0.00 0.00 91 1016.8
20260507050915 51 283 0.0 0.0 0.00 0.00 0.00 91 1016.8
20260507050411 51 283 0.0 0.0 0.00 0.00 0.00 91 1016.7
20260507045908 51 283 0.0 0.0 0.00 0.00 0.00 91 1016.9
20260507045405 51 284 0.0 0.0 0.00 0.00 0.00 91 1016.9
20260507044902 51 291 0.0 0.0 0.00 0.00 0.00 91 1016.7
20260507044359 51 281 0.0 0.0 0.00 0.00 0.00 90 1016.7
20260507043855 51 280 0.0 0.9 0.00 0.00 0.00 90 1016.8
20260507043351 51 280 0.0 0.0 0.00 0.00 0.00 90 1016.8
20260507042847 51 280 0.0 0.0 0.00 0.00 0.00 90 1016.8
20260507042344 51 280 0.0 0.0 0.00 0.00 0.00 90 1016.7
20260507041840 51 286 0.0 0.0 0.00 0.00 0.00 90 1016.9
20260507041337 51 286 0.0 0.0 0.00 0.00 0.00 90 1016.8
20260507040834 51 356 0.9 1.7 0.00 0.00 0.00 91 1016.9
20260507040331 51 258 0.0 0.0 0.00 0.00 0.00 92 1016.9
20260507035826 51 176 0.0 0.0 0.00 0.67 0.67 92 1016.8
20260507035321 51 280 0.0 0.0 0.00 0.67 0.67 92 1016.7
20260507034820 51 302 0.0 0.0 0.00 0.67 0.67 92 1016.4
20260507034316 51 303 0.0 0.0 0.00 0.67 0.67 92 1016.3